Weather Roundup
Issued by NWS Chicago, IL

Home | Current Version | Previous Version | Text Only | Print | Product List | Glossary Off
Versions: 1 2 3 4 5 6 7 8 9 10 11 12 13 14 15 16 17 18 19 20 21 22 23 24 25 26 27 28 29 30 31 32 33 34 35 36 37 38 39 40 41 42 43 44 45 46 47 48 49 50

000
NZUS59 KLOT 231810
HRRLOT

CHICAGO AREA WEATHER ROUNDUP
NATIONAL WEATHER SERVICE CHICAGO/ROMEOVILLE IL
100 PM CDT WED APR 23 2014

NOTE: "FAIR" INDICATES FEW OR NO CLOUDS BELOW 12,000 FEET WITH NO
SIGNIFICANT WEATHER AND/OR OBSTRUCTIONS TO VISIBILITY.

* THESE STATIONS ARE NOT UNDER NWS QUALITY CONTROL. THEY ALSO MAY NOT
  REPORT WEATHER SUCH AS PRECIPITATION OR FOG.

ILZ005-006-012>014-019>023-231900-
NORTHEAST ILLINOIS

CITY           SKY/WX    TMP DP  RH WIND       PRES   REMARKS
OHARE          PTSUNNY   48  24  39 NE6       30.17S
6HR MIN TEMP:  36; 6HR MAX TEMP:  49;

MIDWAY         MOSUNNY   47  28  47 NE6       30.18R
6HR MIN TEMP:  38; 6HR MAX TEMP:  48;

AURORA         SUNNY     53  27  36 MISG      30.15F
6HR MIN TEMP:  32; 6HR MAX TEMP:  53;

LANSING*       SUNNY     46  30  53 N8        30.18S
JOLIET*        SUNNY     51  29  44 NE6       30.16F
WAUKEGAN       SUNNY     44  24  45 E9        30.18F
6HR MIN TEMP:  32; 6HR MAX TEMP:  44;

DUPAGE AIRPORT SUNNY     50  26  39 E8        30.15F
6HR MIN TEMP:  33; 6HR MAX TEMP:  51;

WHEELING       SUNNY     47  26  44 NE8       30.19S
6HR MIN TEMP:  36; 6HR MAX TEMP:  47;

KANKAKEE*      SUNNY     51  30  46 N8        30.15F
MORRIS*        SUNNY     53  24  31 E5        30.14F
LEWIS AIRPORT* SUNNY     50  26  38 NE6       30.15F
NORTHERLY IS     N/A     43  30  60 N12         N/A
$$

WIZ051-052-058>065-066-070>072-231900-
SOUTHEAST WISCONSIN

CITY           SKY/WX    TMP DP  RH WIND       PRES   REMARKS
MILWAUKEE      PTSUNNY   43  26  51 E6        30.20S
6HR MIN TEMP:  36; 6HR MAX TEMP:  44;

KENOSHA*       SUNNY     46  27  47 E13       30.18F
RACINE*        SUNNY     45  26  47 NE8       30.20F
BURLINGTON     SUNNY     48  24  39 SE7       30.17S
WEST BEND      MOSUNNY   46  23  39 E7        30.17S
$$

INZ001>003-010>013-019-020-231900-
NORTHWEST INDIANA

CITY           SKY/WX    TMP DP  RH WIND       PRES   REMARKS
GARY*          MOSUNNY   46  30  53 NE14      30.19R
MICHIGAN CITY* NOT AVBL
RENSSELAER*    NOT AVBL
VALPARAISO     SUNNY     48  30  49 N8        30.15S
$$

LMZ740>746-231900-
SOUTHERN LAKE MICHIGAN

STATION/POSITION TIME  SKY/WX   TEMP WIND        PRES    VSBY
                                AIR  DIR/SP/G
                 (UTC)          (F)  (DEG/KT/KT) (MB)    (MI)
HARRISON CRIB    1800            37  360/ 10/ 11   N/A
BURNHAM HARBOR   1800            43   20/  8/ 11   N/A
CALUMET HARBOR   1800            41  350/  9/ 12 1022.9F
BURNS HARBOR     NOT AVBL
MICHIGAN CITY    1800            39  340/ 13/ 15   N/A
$$

ABBREVIATIONS USED IN REMARKS
   TC - TEMPERATURE IN CELSIUS
  WCI - WIND CHILL INDEX
   HX - HEAT INDEX
  VSB - VISIBILITY
$$


USA.gov is the U.S. government's official web portal to all federal, state and local government web resources and services.